This is the latest recevied weather packets stored in our database for station/object N2PPN. If no packets are shown the sender has not sent any weather packets the latest 10 day(s).
| Time | Temp. | Humidity | Pressure | Rain* | Wind** | Luminosity | Snow |
|---|---|---|---|---|---|---|---|
| 1777899381 | 15° C | 54% | 1016.9 hPa | 0 mm | - | 358 W/m² | - |
| 1777899078 | 14.44° C | 55% | 1017.1 hPa | 0 mm | - | 345 W/m² | - |
| 1777898775 | 14.44° C | 55% | 1017 hPa | 0 mm | - | 330 W/m² | - |
| 1777898472 | 14.44° C | 56% | 1017 hPa | 0 mm | - | 316 W/m² | - |
| 1777898170 | 13.89° C | 57% | 1017.4 hPa | 0 mm | - | 300 W/m² | - |
| 1777897867 | 13.89° C | 58% | 1017.3 hPa | 0 mm | - | 286 W/m² | - |
| 1777897563 | 13.33° C | 58% | 1017.1 hPa | 0 mm | - | 270 W/m² | - |
| 1777897259 | 13.33° C | 59% | 1017.3 hPa | 0 mm | - | 256 W/m² | - |
| 1777896955 | 13.33° C | 59% | 1017.5 hPa | 0 mm | - | 242 W/m² | - |
| 1777896652 | 12.78° C | 59% | 1017.4 hPa | 0 mm | - | 224 W/m² | - |
| 1777896349 | 12.78° C | 59% | 1017.2 hPa | 0 mm | - | 211 W/m² | - |
| 1777896047 | 12.78° C | 59% | 1017.1 hPa | 0 mm | - | 197 W/m² | - |
| 1777895745 | 12.78° C | 60% | 1017.5 hPa | 0 mm | - | 183 W/m² | - |
| 1777895442 | 12.78° C | 60% | 1016.9 hPa | 0 mm | - | 50 W/m² | - |
| 1777895140 | 12.22° C | 60% | 1017.3 hPa | 0 mm | - | 155 W/m² | - |
| 1777894837 | 12.22° C | 61% | 1017.1 hPa | 0 mm | - | 143 W/m² | - |
| 1777894533 | 12.22° C | 61% | 1017.2 hPa | 0 mm | - | 49 W/m² | - |
| 1777894231 | 11.67° C | 62% | 1017.2 hPa | 0 mm | - | 120 W/m² | - |
| 1777893927 | 11.67° C | 63% | 1017.3 hPa | 0 mm | - | 108 W/m² | - |
| 1777893624 | 11.67° C | 64% | 1017.4 hPa | 0 mm | - | 96 W/m² | - |
| 1777893320 | 11.11° C | 65% | 1017.3 hPa | 0 mm | - | 46 W/m² | - |
| 1777893016 | 11.11° C | 65% | 1017.2 hPa | 0 mm | - | 75 W/m² | - |
| 1777892714 | 11.11° C | 66% | 1017.4 hPa | 0 mm | - | 66 W/m² | - |
| 1777892410 | 10.56° C | 66% | 1017.1 hPa | 0 mm | - | 56 W/m² | - |
| 1777892106 | 10.56° C | 66% | 1017.3 hPa | 0 mm | - | 50 W/m² | - |
* Rain latest hour (hover to see other rain measurements)
** Current wind speed in m/s (hover to see current wind gust speed)